Vorticity
4 5 4 4 3 3 2 2 1 1 2 2 3 4 3 4 4 2 6 8 2 2 3 3 -3 4 4 2 5 5 4 2 6
4 4 5 4 3 2 2 2 2 1 1 0 2 3 5 4 6 2 4 8 4 2 3 4 -2 2 4 0 9 6 4 8 5
6 4 5 4 4 3 2 2 1 1 1 1 2 3 3 5 4 7 3 6 6 2 3 3 0 2 4 -1 5 7 8 7 2
9 5 5 4 4 3 2 2 2 1 1 1 2 2 4 3 5 5 6 4 8 4 3 4 1 3 1 0 3 3 7 3 6
9 6 5 4 4 4 3 2 2 2 2 2 2 3 4 4 4 6 6 5 8 5 2 4 1 4 -1 1 -1 -5 5 8 5
7 8 6 4 4 4 4 3 3 2 3 3 3 3 4 5 5 5 5 6 6 5 3 5 3 3 1 0 0 1 1 2 11
4 5 9 8 5 4 4 3 3 3 3 3 4 4 5 6 6 6 5 5 7 6 4 5 5 2 3 0 1 1 1 14 4
3 3 3 5 10 8 6 4 4 4 4 5 5 6 6 6 6 6 6 5 7 6 6 5 3 5 5 3 -1 1 -3 -5 18
3 4 3 4 4 5 7 8 9 8 8 7 8 7 6 5 5 6 7 5 7 7 8 5 4 5 4 3 1 -2 -1 1 21
2 3 4 4 4 3 3 3 3 4 4 4 4 4 3 4 5 6 6 6 6 7 9 6 5 4 3 3 1 2 -1 -3 7
2 2 2 2 2 3 3 3 3 3 3 4 3 3 4 5 5 5 6 5 6 8 8 8 5 3 4 4 3 1 2 -0 1
6 6 4 3 3 3 3 3 3 3 4 5 6 5 5 5 6 6 5 4 5 7 7 9 9 4 4 5 4 2 2 1 -0
5 5 5 4 4 5 5 6 5 5 5 5 4 5 5 6 5 3 2 3 5 5 6 9 11 6 5 4 5 3 1 2 0
5 5 5 6 5 5 5 5 4 4 3 3 5 6 6 4 4 4 5 5 5 6 6 6 12 8 7 5 4 4 4 2 1
5 5 5 6 6 7 7 6 5 4 6 7 5 5 6 6 4 4 6 5 6 6 6 5 7 7 11 8 5 3 4 3 2
8 6 6 6 6 5 5 5 6 7 6 6 7 6 5 4 3 5 6 6 7 7 6 7 6 8 6 10 11 5 3 4 5
5 -0 7 7 6 7 7 6 6 7 8 7 6 3 3 5 8 7 6 6 8 6 7 7 7 6 6 7 8 11 10 6 5
7 13 8 5 0 5 10 7 1 8 7 6 4 5 7 7 6 6 5 8 8 7 7 7 6 6 7 6 9 11 10 10 10
6 6 7 8 10 10 7 11 12 7 6 1 5 7 7 5 4 5 7 10 10 10 9 10 10 8 7 6 8 8 10 9 10
7 8 7 8 7 8 7 6 6 6 6 7 8 8 5 4 5 10 12 13 12 10 8 8 7 7 7 8 7 7 8 8 9
Height
5871 5872 5874 5877 5878 5880 5882 5884 5885 5886 5887 5888 5888 5888 5888 5888 5889 5889 5889 5889 5889 5889 5890 5889 5889 5888 5887 5886 5885 5884 5882 5881 5879
5869 5871 5873 5875 5877 5879 5881 5883 5885 5886 5887 5887 5888 5888 5888 5889 5890 5889 5889 5889 5889 5890 5890 5890 5889 5888 5887 5886 5885 5884 5882 5881 5879
5867 5869 5872 5874 5877 5878 5880 5882 5883 5885 5886 5887 5887 5888 5888 5889 5889 5889 5888 5888 5889 5889 5890 5890 5889 5888 5887 5886 5885 5884 5882 5881 5881
5865 5867 5869 5872 5875 5877 5878 5880 5882 5883 5884 5885 5886 5887 5887 5888 5888 5888 5888 5888 5888 5889 5889 5889 5889 5888 5887 5886 5885 5884 5883 5882 5881
5862 5864 5867 5869 5872 5874 5876 5878 5880 5882 5883 5884 5885 5885 5886 5887 5887 5887 5887 5887 5887 5888 5888 5888 5888 5888 5887 5887 5886 5884 5883 5883 5881
5860 5862 5864 5867 5869 5872 5875 5876 5878 5879 5881 5882 5883 5884 5885 5886 5886 5886 5886 5886 5886 5886 5887 5887 5888 5887 5887 5886 5885 5884 5884 5883 5881
5858 5859 5861 5864 5866 5869 5871 5873 5875 5876 5878 5879 5881 5882 5883 5884 5884 5885 5885 5884 5885 5884 5885 5886 5886 5886 5885 5885 5884 5884 5883 5883 5882
5855 5857 5859 5861 5863 5865 5867 5870 5871 5873 5875 5877 5878 5879 5880 5881 5882 5882 5882 5882 5883 5882 5883 5883 5884 5884 5884 5884 5883 5883 5882 5881 5881
5851 5854 5855 5857 5859 5862 5864 5866 5868 5870 5871 5873 5875 5876 5877 5878 5879 5880 5880 5880 5880 5881 5881 5881 5881 5881 5881 5881 5881 5881 5881 5880 5880
5846 5849 5851 5853 5856 5858 5860 5863 5865 5867 5868 5870 5871 5873 5874 5875 5876 5876 5877 5877 5878 5878 5879 5879 5879 5878 5878 5878 5878 5879 5879 5878 5878
5841 5843 5846 5849 5851 5853 5856 5858 5860 5862 5864 5866 5867 5869 5870 5872 5873 5873 5874 5874 5875 5875 5876 5875 5876 5875 5875 5875 5875 5875 5876 5876 5876
5834 5837 5840 5843 5846 5848 5851 5853 5855 5857 5860 5862 5864 5865 5866 5868 5868 5869 5870 5870 5871 5871 5872 5872 5872 5871 5871 5872 5872 5872 5872 5872 5872
5826 5830 5834 5837 5841 5843 5846 5848 5850 5852 5854 5856 5858 5860 5861 5863 5864 5864 5866 5866 5867 5868 5867 5868 5868 5868 5867 5868 5868 5868 5867 5867 5867
5819 5823 5827 5830 5833 5837 5839 5842 5844 5847 5849 5850 5852 5854 5856 5858 5858 5860 5861 5862 5862 5863 5863 5863 5864 5864 5863 5863 5864 5864 5863 5862 5862
5811 5815 5819 5823 5826 5829 5833 5835 5838 5840 5843 5844 5846 5848 5849 5851 5852 5853 5855 5856 5856 5858 5858 5858 5858 5859 5858 5859 5859 5859 5858 5857 5857
5803 5806 5811 5815 5819 5822 5824 5828 5831 5833 5837 5838 5839 5841 5843 5845 5846 5847 5848 5849 5851 5851 5851 5851 5852 5853 5852 5852 5853 5853 5852 5852 5851
5793 5798 5802 5806 5810 5814 5818 5821 5824 5827 5830 5831 5832 5835 5838 5839 5840 5841 5842 5842 5844 5845 5845 5845 5846 5847 5846 5845 5845 5845 5845 5845 5844
5783 5788 5793 5797 5801 5806 5810 5812 5817 5820 5822 5825 5827 5828 5831 5832 5833 5833 5834 5835 5836 5838 5838 5839 5839 5839 5839 5839 5839 5839 5839 5838 5837
5772 5777 5782 5787 5792 5798 5802 5804 5808 5811 5815 5818 5820 5821 5822 5823 5825 5826 5826 5828 5828 5830 5831 5831 5832 5832 5832 5831 5832 5831 5831 5830 5829
5762 5768 5773 5777 5782 5787 5792 5795 5799 5803 5806 5809 5812 5813 5815 5816 5817 5818 5819 5820 5821 5822 5824 5825 5825 5824 5824 5823 5823 5823 5822 5821 5820